EW5414 Weather Reports


time (UTC)temp
C
wind
direction
speed
KPH
gust
KPH
rain 1hr
cm
rain 24hr
cm
rain mn
cm
humidity
%
barometer
mb
20260505093030 11 234 0.0 0.0 0.00 1.40 0.74 92 1011.2
20260505091533 11 286 0.0 0.0 0.00 1.40 0.74 92 1011.2
20260505090020 11 188 0.0 0.0 0.00 1.40 0.74 92 1011.1
20260505084524 11 262 0.0 0.0 0.00 1.40 0.74 92 1011.0
20260505083034 10 302 0.0 0.0 0.00 1.40 0.74 92 1011.1
20260505081529 10 302 0.0 0.0 0.00 1.40 0.74 92 1011.0
20260505080041 10 320 0.0 0.0 0.00 1.40 0.74 92 1011.0
20260505074520 9 320 0.0 0.0 0.00 1.40 0.74 92 1010.9
20260505073026 9 320 0.0 0.0 0.00 1.40 0.74 92 1011.0
20260505071535 9 320 0.0 0.0 0.00 1.40 0.74 92 1011.1
20260505070030 9 320 0.0 0.0 0.00 1.40 0.71 92 1011.1
20260505064526 9 320 0.0 0.0 0.00 1.40 0.71 92 1011.1
20260505063029 8 320 0.0 0.0 0.00 1.40 0.71 92 1011.3
20260505061522 8 320 0.0 0.0 0.00 1.40 0.71 92 1011.6
20260505060018 8 320 0.0 0.0 0.03 1.37 0.69 92 1011.6
20260505054514 8 320 0.0 0.0 0.08 1.37 0.69 92 1011.7
20260505053017 8 320 0.0 0.0 0.10 1.37 0.69 92 1011.8
20260505051533 8 320 0.0 0.0 0.18 1.37 0.69 92 1011.8
20260505041541 8 298 0.0 0.0 0.13 1.19 0.51 92 1012.2
20260505040024 8 297 0.0 0.0 0.08 1.12 0.46 92 1012.3
20260505034524 8 312 0.0 0.0 0.08 1.09 0.41 92 1012.3
20260505033014 8 312 0.0 0.0 0.08 1.07 0.38 92 1012.3
20260505031526 8 312 0.0 0.0 0.10 1.07 0.36 92 1012.4
20260505030024 8 312 0.0 0.0 0.13 1.04 0.36 92 1012.5
20260505024504 8 312 0.0 0.0 0.18 1.02 0.33 92 1012.5
20260505023008 8 312 0.0 0.0 0.18 0.99 0.28 92 1012.4
20260505021518 8 312 0.0 0.0 0.20 0.94 0.25 92 1012.7
20260505020019 8 312 0.0 0.0 0.18 0.91 0.20 92 1012.9
20260505014523 8 312 0.0 0.0 0.15 0.84 0.15 92 1013.0
20260505013010 8 312 0.0 0.0 0.10 0.81 0.10 92 1013.2
20260505011513 8 312 0.0 0.0 0.03 0.74 0.03 92 1013.4
20260505010016 8 312 0.0 0.0 0.00 0.71 0.00 92 1013.2
20260505004522 8 312 0.0 0.0 0.00 0.69 0.00 92 1013.3
20260505003029 8 312 0.0 0.0 0.00 0.69 0.00 92 1013.6
20260505001509 8 312 0.0 0.0 0.00 0.69 0.00 92 1013.5
20260505000014 8 312 0.0 0.0 0.00 0.69 0.00 92 1013.2
20260504234518 8 312 0.0 0.0 0.00 0.69 0.00 91 1013.3
20260504233025 8 312 0.0 0.0 0.00 0.69 0.00 91 1013.5
20260504231529 8 312 0.0 0.0 0.00 0.69 0.00 92 1013.6
20260504230025 8 312 0.0 0.0 0.00 0.69 0.00 92 1013.7
20260504224522 8 312 0.0 0.0 0.00 0.69 0.00 91 1013.6
20260504223022 8 312 0.0 0.0 0.00 0.69 0.00 91 1013.8
20260504221525 8 312 0.0 0.0 0.00 0.69 0.00 91 1013.8
20260504220027 8 312 0.0 0.0 0.00 0.69 0.00 91 1013.8
20260504214538 8 312 0.0 0.0 0.00 0.69 0.69 91 1014.1
20260504213014 8 312 0.0 0.0 0.00 0.69 0.69 91 1014.3
20260504211502 8 312 0.0 0.0 0.00 0.69 0.69 91 1014.2
20260504210009 8 312 0.0 0.0 0.00 0.69 0.69 91 1014.3
20260504204512 8 312 0.0 0.0 0.00 0.69 0.69 91 1014.4
20260504203018 8 312 0.0 0.0 0.00 0.69 0.69 90 1014.6
20260504201516 9 312 0.0 0.0 0.00 0.69 0.69 90 1014.6
20260504200008 9 312 0.0 0.0 0.00 0.69 0.69 90 1014.8
20260504194509 9 312 0.0 0.0 0.00 0.69 0.69 91 1014.8
20260504193011 9 312 0.0 0.0 0.00 0.69 0.69 90 1014.9
20260504191520 9 312 0.0 0.0 0.00 0.69 0.69 90 1015.0
20260504190021 9 312 0.0 0.0 0.00 0.69 0.69 90 1015.0
20260504184531 9 312 0.0 0.0 0.00 0.69 0.69 90 1015.0
20260504183008 9 311 0.0 0.0 0.00 0.69 0.69 90 1015.2
20260504181509 10 311 0.0 0.0 0.00 0.69 0.69 90 1015.3
20260504180015 10 300 0.0 1.6 0.00 0.69 0.69 90 1015.3
20260504174520 10 296 0.0 1.6 0.00 0.69 0.69 90 1015.5
20260504173026 10 269 0.0 1.6 0.00 0.69 0.69 90 1015.5
20260504171507 10 272 0.0 0.0 0.00 0.69 0.69 90 1015.7